パンスターズ彗星

C/2023 H3 ( PanSTARRS )

English version
Home page
Updated on September 2, 2023

---------------------------------------------------------------------

・ プロフィール

発見日 2023年4月28日
発見光度 20.8等
発見者 Pan-STARRS 2 telescope (Haleakala)

・ 軌道要素

Epoch 2023 Sept. 13.0 TT = JDT 2460200.5
T 2024 Feb. 19.13355 TT                                 Rudenko
q   5.2326463            (2000.0)            P               Q
n   0.01957636     Peri.  193.34033     -0.36764612     +0.92928320
a  13.6347778      Node    55.10015     -0.84919079     -0.31985129
e   0.6162280      Incl.    2.48947     -0.37909278     -0.18473735
P  50.3
>From 56 observations 2023 Mar. 16-June 13.

・ 光度変化

        m1 = 9.5 + 5 logΔ + 10.0 log r

---------------------------------------------------------------------

軌道要素はM.P.E.C. 2023-Q150に掲載されたものです。
光度グラフはComet for Windowsで作成したものです。

---------------------------------------------------------------------

Copyright(C) Seiichi Yoshida (comet@aerith.net). All rights reserved.